Regional Weather Roundup
Issued by NWS

Home | Current Version | Previous Version | Text Only | Print | Product List | Glossary Off
Versions: 1 2 3 4 5 6 7 8 9 10 11 12 13 14 15 16 17 18 19 20 21 22 23 24 25 26 27 28 29 30 31 32 33 34 35 36 37 38 39 40 41 42 43 44 45 46 47 48 49 50

000
ASUS43 KLSX 021459
RWRMO

WEATHER SUMMARY FOR MISSOURI
NATIONAL WEATHER SERVICE SPRINGFIELD MO
1000 AM CDT TUE JUN 02 2015

NOTE: "FAIR" INDICATES FEW OR NO CLOUDS BELOW 12,000 FEET WITH NO
       SIGNIFICANT WEATHER AND/OR OBSTRUCTIONS TO VISIBILITY.
       CURRENT SKY AND/OR WEATHER CONDITIONS ARE NOT AVAILABLE FOR
       CHILLICOTHE AND FARMINGTON.

MOZ001>031-035>038-043-044-053-054-021600-
...NORTHERN AND WESTERN MISSOURI...

CITY           SKY/WX    TMP DP  RH WIND       PRES   REMARKS
KANSAS CTY INT PTSUNNY   63  56  78 SE12      30.09F
KANSAS C DTWN  CLOUDY    64  54  69 SE10      30.09F
LEE`S SUMMIT   CLOUDY    62  55  77 SE6       30.12S
ST JOSEPH      CLOUDY    63  55  75 SE12      30.08F
CHILLICOTHE      N/A     63  54  72 VRB7      30.13R
KIRKSVILLE     PTSUNNY   63  58  83 SE9       30.13F

$$
MOZ066>068-077>081-088>096-101>105-021600-
...SOUTHWEST MISSOURI...

CITY           SKY/WX    TMP DP  RH WIND       PRES   REMARKS
SPRINGFIELD    CLOUDY    64  58  80 SE10      30.10S
JOPLIN         PTSUNNY   69  62  78 SE9       30.07F

$$
MOZ032>034-039>042-045>050-055>058-069>072-021600-
...CENTRAL MISSOURI...

CITY           SKY/WX    TMP DP  RH WIND       PRES   REMARKS
COLUMBIA       CLOUDY    64  56  75 E3        30.13F
JEFFERSON CITY CLOUDY    64  56  75 SE6       30.12F
ROLLA          CLOUDY    61  56  83 NE6       30.12F
SEDALIA        CLOUDY    64  55  72 SE9       30.14R
OSAGE BEACH    CLOUDY    64  54  68 SE7       30.12F

$$
MOZ051-052-059>065-021600-
...EAST CENTRAL MISSOURI...

CITY           SKY/WX    TMP DP  RH WIND       PRES   REMARKS
ST LOUIS INTL  MOSUNNY   66  54  65 VRB3      30.15S
SPIRIT OF STL  PTSUNNY   66  55  67 CALM      30.14S
ST CHARLES     MOSUNNY   68  56  65 VRB5      30.15S

$$
MOZ072>076-082>087-097>100-106>115-021600-
...SOUTH CENTRAL AND SOUTHEAST MISSOURI...

CITY           SKY/WX    TMP DP  RH WIND       PRES   REMARKS
CAPE GIRARDEAU CLOUDY    62  56  80 NE5       30.12F
FARMINGTON     CLOUDY    59  55  88 E6        30.18S
POPLAR BLUFF   CLOUDY    62  55  77 NE5       30.13R
WEST PLAINS    CLOUDY    64  54  69 CALM      30.14S

$$



USA.gov is the U.S. government's official web portal to all federal, state and local government web resources and services.